User: anonymous   Login
Location: Unspecified
(0.0000°N, 0.0000°E)
Time: 23:31:22
(UTC+00:00)
Language:

Kosmos-2233 - Orbit

View from above orbital plane
View from above orbital plane
View from above satellite
View from above satellite

Ground track
Ground track

The orbit data is extracted from the following two-line orbital elements,

1 22487U 93008A   21023.85507674  .00000055  00000-0  40666-4 0  9999
2 22487  82.9435 203.9712 0037355 219.4730 258.3795 13.75805510399374
Epoch (UTC): 23 January 2021 20:31:18
Eccentricity: 0.0037355
inclination: 82.9435°
perigee height: 951 km
apogee height: 1006 km
right ascension of ascending node: 203.9712°
argument of perigee: 219.4730°
revolutions per day: 13.75805510
mean anomaly at epoch: 258.3795°
orbit number at epoch: 39937

The dashed part of the orbit path shows where the satellite is in the earth's shadow,  

DLR